Location: Casone le Fosse
(44.6547°N, 12.1103°E)
Time: 10:49:23
(UTC+00:00)

Cosmos 1302 Rocket - Pass Details

Date: 29 October 2020
Orbit: 756 x 777 km, 74.0° (Epoch: 28 November)

Event Time Altitude Azimuth Distance (km) Brightness Sun altitude
Rises 16:54:37 0° 199° (SSW) 3,223 7.7 -9.5°
Reaches altitude 10° 16:56:58 10° 199° (SSW) 2,304 6.9 -9.9°
Maximum altitude 17:02:13 89° 116° (ESE) 779 4.0 -10.8°
Drops below altitude 10° 17:07:32 10° 21° (NNE) 2,332 6.2 -11.8°
Sets 17:09:55 0° 22° (NNE) 3,265 7.0 -12.2°
